Year,Month,Day,Hour,Minute,Value (Times are PST for temperature in C)
2009,05,30,00,00,13.20
2009,05,30,00,01,13.00
2009,05,30,00,02,12.90
2009,05,30,00,03,12.90
2009,05,30,00,04,12.80
2009,05,30,00,05,12.80
2009,05,30,00,06,12.80
2009,05,30,00,07,12.80
2009,05,30,00,08,12.80
2009,05,30,00,09,12.80
2009,05,30,00,10,12.80
2009,05,30,00,11,12.80
2009,05,30,00,12,12.70
2009,05,30,00,13,12.70
2009,05,30,00,14,12.60
2009,05,30,00,15,12.60
2009,05,30,00,16,12.60
2009,05,30,00,17,12.60
2009,05,30,00,18,12.60
2009,05,30,00,19,12.60
2009,05,30,00,20,12.50
2009,05,30,00,21,12.50
2009,05,30,00,22,12.50
2009,05,30,00,23,12.40
2009,05,30,00,24,12.40
2009,05,30,00,25,12.40
2009,05,30,00,26,12.40
2009,05,30,00,27,12.30
2009,05,30,00,28,12.30
2009,05,30,00,29,12.30
2009,05,30,00,30,12.20
2009,05,30,00,31,12.20
2009,05,30,00,32,12.20
2009,05,30,00,33,12.20
2009,05,30,00,34,12.10
2009,05,30,00,35,12.10
2009,05,30,00,36,12.00
2009,05,30,00,37,12.00
2009,05,30,00,38,11.90
2009,05,30,00,39,11.90
2009,05,30,00,40,11.90
2009,05,30,00,41,11.80
2009,05,30,00,42,11.80
2009,05,30,00,43,11.80
2009,05,30,00,44,11.80
2009,05,30,00,45,11.80
2009,05,30,00,46,11.70
2009,05,30,00,47,11.70
2009,05,30,00,48,11.70
2009,05,30,00,49,11.70
2009,05,30,00,50,11.70
2009,05,30,00,51,11.70
2009,05,30,00,52,11.70
2009,05,30,00,53,11.70
2009,05,30,00,54,11.70
2009,05,30,00,55,11.70
2009,05,30,00,56,11.80
2009,05,30,00,57,11.70
2009,05,30,00,58,11.70
2009,05,30,00,59,11.70
2009,05,30,01,00,11.70
2009,05,30,01,01,11.70
2009,05,30,01,02,11.70
2009,05,30,01,03,11.70
2009,05,30,01,04,11.70
2009,05,30,01,05,11.70
2009,05,30,01,06,11.70
2009,05,30,01,07,11.70
2009,05,30,01,08,11.70
2009,05,30,01,09,11.70
2009,05,30,01,10,11.70
2009,05,30,01,11,11.70
2009,05,30,01,12,11.70
2009,05,30,01,13,11.70
2009,05,30,01,14,11.70
2009,05,30,01,15,11.70
2009,05,30,01,16,11.70
2009,05,30,01,17,11.70
2009,05,30,01,18,11.70
2009,05,30,01,19,11.70
2009,05,30,01,20,11.70
2009,05,30,01,21,11.70
2009,05,30,01,22,11.70
2009,05,30,01,23,11.70
2009,05,30,01,24,11.70
2009,05,30,01,25,11.70
2009,05,30,01,26,11.70
2009,05,30,01,27,11.70
2009,05,30,01,28,11.60
2009,05,30,01,29,11.60
2009,05,30,01,30,11.60
2009,05,30,01,31,11.60
2009,05,30,01,32,11.60
2009,05,30,01,33,11.60
2009,05,30,01,34,11.60
2009,05,30,01,35,11.60
2009,05,30,01,36,11.60
2009,05,30,01,37,11.60
2009,05,30,01,38,11.60
2009,05,30,01,39,11.70
2009,05,30,01,40,11.70
2009,05,30,01,41,11.70
2009,05,30,01,42,11.70
2009,05,30,01,43,11.70
2009,05,30,01,44,11.70
2009,05,30,01,45,11.70
2009,05,30,01,46,11.60
2009,05,30,01,47,11.60
2009,05,30,01,48,11.60
2009,05,30,01,49,11.60
2009,05,30,01,50,11.60
2009,05,30,01,51,11.70
2009,05,30,01,52,11.70
2009,05,30,01,53,11.80
2009,05,30,01,54,11.80
2009,05,30,01,55,11.80
2009,05,30,01,56,11.70
2009,05,30,01,57,11.70
2009,05,30,01,58,11.70
2009,05,30,01,59,11.70
2009,05,30,02,00,11.70
2009,05,30,02,01,11.70
2009,05,30,02,02,11.70
2009,05,30,02,03,11.70
2009,05,30,02,04,11.70
2009,05,30,02,05,11.70
2009,05,30,02,06,11.60
2009,05,30,02,07,11.60
2009,05,30,02,08,11.60
2009,05,30,02,09,11.60
2009,05,30,02,10,11.50
2009,05,30,02,11,11.40
2009,05,30,02,12,11.40
2009,05,30,02,13,11.40
2009,05,30,02,14,11.30
2009,05,30,02,15,11.20
2009,05,30,02,16,11.20
2009,05,30,02,17,11.10
2009,05,30,02,18,11.10
2009,05,30,02,19,11.10
2009,05,30,02,20,11.10
2009,05,30,02,21,11.20
2009,05,30,02,22,11.30
2009,05,30,02,23,11.30
2009,05,30,02,24,11.30
2009,05,30,02,25,11.30
2009,05,30,02,26,11.40
2009,05,30,02,27,11.40
2009,05,30,02,28,11.40
2009,05,30,02,29,11.40
2009,05,30,02,30,11.40
2009,05,30,02,31,11.40
2009,05,30,02,32,11.40
2009,05,30,02,33,11.30
2009,05,30,02,34,11.30
2009,05,30,02,35,11.30
2009,05,30,02,36,11.20
2009,05,30,02,37,11.20
2009,05,30,02,38,11.20
2009,05,30,02,39,11.10
2009,05,30,02,40,11.10
2009,05,30,02,41,11.10
2009,05,30,02,42,11.00
2009,05,30,02,43,11.00
2009,05,30,02,44,10.90
2009,05,30,02,45,10.90
2009,05,30,02,46,10.90
2009,05,30,02,47,10.90
2009,05,30,02,48,10.80
2009,05,30,02,49,10.80
2009,05,30,02,50,10.70
2009,05,30,02,51,10.70
2009,05,30,02,52,10.70
2009,05,30,02,53,10.70
2009,05,30,02,54,10.80
2009,05,30,02,55,10.90
2009,05,30,02,56,11.00
2009,05,30,02,57,11.10
2009,05,30,02,58,11.20
2009,05,30,02,59,11.20
2009,05,30,03,00,11.20
2009,05,30,03,01,11.20
2009,05,30,03,02,11.10
2009,05,30,03,03,11.10
2009,05,30,03,04,11.00
2009,05,30,03,05,11.00
2009,05,30,03,06,10.90
2009,05,30,03,07,10.80
2009,05,30,03,08,10.80
2009,05,30,03,09,10.80
2009,05,30,03,10,10.80
2009,05,30,03,11,10.70
2009,05,30,03,12,10.70
2009,05,30,03,13,10.70
2009,05,30,03,14,10.60
2009,05,30,03,15,10.60
2009,05,30,03,16,10.50
2009,05,30,03,17,10.50
2009,05,30,03,18,10.50
2009,05,30,03,19,10.40
2009,05,30,03,20,10.40
2009,05,30,03,21,10.30
2009,05,30,03,22,10.20
2009,05,30,03,23,10.20
2009,05,30,03,24,10.10
2009,05,30,03,25,10.00
2009,05,30,03,26,10.00
2009,05,30,03,27,9.90
2009,05,30,03,28,9.90
2009,05,30,03,29,9.80
2009,05,30,03,30,9.80
2009,05,30,03,34,9.90
2009,05,30,03,35,9.90
2009,05,30,03,36,9.90
2009,05,30,03,37,9.90
2009,05,30,03,38,9.90
2009,05,30,03,39,9.90
2009,05,30,03,40,10.00
2009,05,30,03,41,10.00
2009,05,30,03,42,10.00
2009,05,30,03,43,10.00
2009,05,30,03,44,10.10
2009,05,30,03,45,10.10
2009,05,30,03,46,10.10
2009,05,30,03,47,10.20
2009,05,30,03,48,10.20
2009,05,30,03,49,10.30
2009,05,30,03,50,10.40
2009,05,30,03,51,10.40
2009,05,30,03,52,10.50
2009,05,30,03,53,10.50
2009,05,30,03,54,10.50
2009,05,30,03,55,10.40
2009,05,30,03,56,10.40
2009,05,30,03,57,10.40
2009,05,30,03,58,10.30
2009,05,30,03,59,10.30
2009,05,30,04,00,10.20
2009,05,30,04,01,10.10
2009,05,30,04,02,10.00
2009,05,30,04,03,9.90
2009,05,30,04,04,9.80
2009,05,30,04,05,9.60
2009,05,30,04,06,9.50
2009,05,30,04,07,9.40
2009,05,30,04,08,9.30
2009,05,30,04,09,9.20
2009,05,30,04,10,9.10
2009,05,30,04,11,9.00
2009,05,30,04,12,9.00
2009,05,30,04,13,9.00
2009,05,30,04,14,8.90
2009,05,30,04,15,8.90
2009,05,30,04,16,8.90
2009,05,30,04,17,8.90
2009,05,30,04,18,8.90
2009,05,30,04,19,8.90
2009,05,30,04,20,8.90
2009,05,30,04,21,9.00
2009,05,30,04,22,9.00
2009,05,30,04,23,9.10
2009,05,30,04,24,9.10
2009,05,30,04,25,9.10
2009,05,30,04,26,9.10
2009,05,30,04,27,9.10
2009,05,30,04,28,9.20
2009,05,30,04,29,9.20
2009,05,30,04,30,9.20
2009,05,30,04,31,9.20
2009,05,30,04,32,9.20
2009,05,30,04,33,9.20
2009,05,30,04,34,9.20
2009,05,30,04,35,9.20
2009,05,30,04,36,9.20
2009,05,30,04,37,9.20
2009,05,30,04,38,9.20
2009,05,30,04,39,9.20
2009,05,30,04,40,9.20
2009,05,30,04,41,9.20
2009,05,30,04,42,9.20
2009,05,30,04,43,9.20
2009,05,30,04,44,9.10
2009,05,30,04,45,9.10
2009,05,30,04,46,9.10
2009,05,30,04,47,9.10
2009,05,30,04,48,9.00
2009,05,30,04,49,9.00
2009,05,30,04,50,9.00
2009,05,30,04,51,9.00
2009,05,30,04,52,9.00
2009,05,30,04,53,8.90
2009,05,30,04,54,8.90
2009,05,30,04,55,8.90
2009,05,30,04,56,8.90
2009,05,30,04,57,8.80
2009,05,30,04,58,8.80
2009,05,30,04,59,8.80
2009,05,30,05,00,8.80
2009,05,30,05,01,8.80
2009,05,30,05,02,8.80
2009,05,30,05,03,8.80
2009,05,30,05,04,8.80
2009,05,30,05,05,8.80
2009,05,30,05,06,8.80
2009,05,30,05,07,8.80
2009,05,30,05,08,8.80
2009,05,30,05,09,8.70
2009,05,30,05,10,8.70
2009,05,30,05,11,8.70
2009,05,30,05,12,8.70
2009,05,30,05,13,8.70
2009,05,30,05,14,8.70
2009,05,30,05,15,8.70
2009,05,30,05,16,8.70
2009,05,30,05,17,8.70
2009,05,30,05,18,8.80
2009,05,30,05,19,8.80
2009,05,30,05,20,8.80
2009,05,30,05,21,8.80
2009,05,30,05,22,8.80
2009,05,30,05,23,8.80
2009,05,30,05,24,8.80
2009,05,30,05,25,8.80
2009,05,30,05,26,8.80
2009,05,30,05,27,8.80
2009,05,30,05,28,8.80
2009,05,30,05,29,8.80
2009,05,30,05,30,8.90
2009,05,30,05,31,8.90
2009,05,30,05,32,8.90
2009,05,30,05,33,8.90
2009,05,30,05,34,8.90
2009,05,30,05,35,9.00
2009,05,30,05,36,9.00
2009,05,30,05,37,9.10
2009,05,30,05,38,9.10
2009,05,30,05,39,9.10
2009,05,30,05,40,9.10
2009,05,30,05,41,9.10
2009,05,30,05,42,9.10
2009,05,30,05,43,9.10
2009,05,30,05,44,9.20
2009,05,30,05,45,9.20
2009,05,30,05,46,9.20
2009,05,30,05,47,9.20
2009,05,30,05,48,9.30
2009,05,30,05,49,9.30
2009,05,30,05,50,9.30
2009,05,30,05,51,9.30
2009,05,30,05,52,9.30
2009,05,30,05,53,9.40
2009,05,30,05,54,9.40
2009,05,30,05,55,9.40
2009,05,30,05,56,9.40
2009,05,30,05,57,9.50
2009,05,30,05,58,9.50
2009,05,30,05,59,9.50
2009,05,30,06,00,9.50
2009,05,30,06,01,9.50
2009,05,30,06,02,9.50
2009,05,30,06,03,9.40
2009,05,30,06,04,9.40
2009,05,30,06,05,9.40
2009,05,30,06,06,9.40
2009,05,30,06,07,9.40
2009,05,30,06,08,9.40
2009,05,30,06,09,9.40
2009,05,30,06,10,9.40
2009,05,30,06,11,9.50
2009,05,30,06,12,9.50
2009,05,30,06,13,9.60
2009,05,30,06,14,9.60
2009,05,30,06,15,9.70
2009,05,30,06,16,9.70
2009,05,30,06,17,9.80
2009,05,30,06,18,9.80
2009,05,30,06,19,9.90
2009,05,30,06,20,10.00
2009,05,30,06,21,10.00
2009,05,30,06,22,10.10
2009,05,30,06,23,10.20
2009,05,30,06,24,10.30
2009,05,30,06,25,10.30
2009,05,30,06,26,10.40
2009,05,30,06,27,10.50
2009,05,30,06,28,10.70
2009,05,30,06,29,10.80
2009,05,30,06,30,10.80
2009,05,30,06,31,10.90
2009,05,30,06,32,11.00
2009,05,30,06,33,11.10
2009,05,30,06,34,11.20
2009,05,30,06,35,11.30
2009,05,30,06,36,11.40
2009,05,30,06,37,11.50
2009,05,30,06,38,11.60
2009,05,30,06,39,11.70
2009,05,30,06,40,11.80
2009,05,30,06,41,11.90
2009,05,30,06,42,12.00
2009,05,30,06,43,12.10
2009,05,30,06,44,12.20
2009,05,30,06,45,12.20
2009,05,30,06,46,12.30
2009,05,30,06,47,12.40
2009,05,30,06,48,12.50
2009,05,30,06,49,12.60
2009,05,30,06,50,12.70
2009,05,30,06,51,12.70
2009,05,30,06,52,12.80
2009,05,30,06,53,12.90
2009,05,30,06,54,12.90
2009,05,30,06,55,13.00
2009,05,30,06,56,13.00
2009,05,30,06,57,13.10
2009,05,30,06,58,13.20
2009,05,30,06,59,13.30
2009,05,30,07,00,13.40
2009,05,30,07,01,13.50
2009,05,30,07,02,13.50
2009,05,30,07,03,13.60
2009,05,30,07,04,13.60
2009,05,30,07,05,13.60
2009,05,30,07,06,13.60
2009,05,30,07,07,13.60
2009,05,30,07,08,13.60
2009,05,30,07,09,13.50
2009,05,30,07,10,13.50
2009,05,30,07,11,13.40
2009,05,30,07,12,13.40
2009,05,30,07,13,13.40
2009,05,30,07,14,13.40
2009,05,30,07,15,13.40
2009,05,30,07,16,13.40
2009,05,30,07,17,13.40
2009,05,30,07,18,13.40
2009,05,30,07,19,13.50
2009,05,30,07,20,13.50
2009,05,30,07,21,13.50
2009,05,30,07,22,13.60
2009,05,30,07,23,13.60
2009,05,30,07,24,13.60
2009,05,30,07,25,13.70
2009,05,30,07,26,13.80
2009,05,30,07,27,13.80
2009,05,30,07,28,13.90
2009,05,30,07,29,13.90
2009,05,30,07,30,13.90
2009,05,30,07,31,13.90
2009,05,30,07,32,14.00
2009,05,30,07,33,14.00
2009,05,30,07,34,14.00
2009,05,30,07,35,14.00
2009,05,30,07,36,14.00
2009,05,30,07,37,14.00
2009,05,30,07,38,14.00
2009,05,30,07,39,14.00
2009,05,30,07,40,14.10
2009,05,30,07,41,14.10
2009,05,30,07,42,14.10
2009,05,30,07,43,14.10
2009,05,30,07,44,14.10
2009,05,30,07,45,14.10
2009,05,30,07,46,14.10
2009,05,30,07,47,14.10
2009,05,30,07,48,14.10
2009,05,30,07,49,14.20
2009,05,30,07,50,14.20
2009,05,30,07,51,14.30
2009,05,30,07,52,14.30
2009,05,30,07,53,14.30
2009,05,30,07,54,14.30
2009,05,30,07,55,14.30
2009,05,30,07,56,14.30
2009,05,30,07,57,14.30
2009,05,30,07,58,14.40
2009,05,30,07,59,14.40
2009,05,30,08,00,14.50
2009,05,30,08,01,14.60
2009,05,30,08,02,14.60
2009,05,30,08,03,14.70
2009,05,30,08,04,14.70
2009,05,30,08,05,14.70
2009,05,30,08,06,14.80
2009,05,30,08,07,14.90
2009,05,30,08,08,15.00
2009,05,30,08,09,15.00
2009,05,30,08,10,15.00
2009,05,30,08,11,15.00
2009,05,30,08,12,15.20
2009,05,30,08,13,15.30
2009,05,30,08,14,15.40
2009,05,30,08,15,15.50
2009,05,30,08,16,15.60
2009,05,30,08,17,15.70
2009,05,30,08,18,15.80
2009,05,30,08,19,15.80
2009,05,30,08,20,15.90
2009,05,30,08,21,15.90
2009,05,30,08,22,16.00
2009,05,30,08,23,16.10
2009,05,30,08,24,16.10
2009,05,30,08,25,16.20
2009,05,30,08,26,16.20
2009,05,30,08,27,16.30
2009,05,30,08,28,16.40
2009,05,30,08,29,16.50
2009,05,30,08,30,16.60
2009,05,30,08,31,16.60
2009,05,30,08,32,16.60
2009,05,30,08,33,16.50
2009,05,30,08,34,16.50
2009,05,30,08,35,16.40
2009,05,30,08,36,16.40
2009,05,30,08,37,16.30
2009,05,30,08,38,16.30
2009,05,30,08,39,16.30
2009,05,30,08,40,16.30
2009,05,30,08,41,16.30
2009,05,30,08,42,16.30
2009,05,30,08,43,16.30
2009,05,30,08,44,16.40
2009,05,30,08,45,16.50
2009,05,30,08,46,16.60
2009,05,30,08,47,16.70
2009,05,30,08,48,16.80
2009,05,30,08,49,16.80
2009,05,30,08,50,16.90
2009,05,30,08,51,17.00
2009,05,30,08,52,17.10
2009,05,30,08,53,17.10
2009,05,30,08,54,17.10
2009,05,30,08,55,17.10
2009,05,30,08,56,17.10
2009,05,30,08,57,17.20
2009,05,30,08,58,17.20
2009,05,30,08,59,17.30
2009,05,30,09,00,17.30
2009,05,30,09,01,17.30
2009,05,30,09,02,17.40
2009,05,30,09,03,17.40
2009,05,30,09,04,17.40
2009,05,30,09,05,17.50
2009,05,30,09,06,17.60
2009,05,30,09,07,17.70
2009,05,30,09,08,17.80
2009,05,30,09,09,17.80
2009,05,30,09,10,17.90
2009,05,30,09,11,17.90
2009,05,30,09,12,17.90
2009,05,30,09,13,18.00
2009,05,30,09,14,18.00
2009,05,30,09,15,18.10
2009,05,30,09,16,18.20
2009,05,30,09,17,18.20
2009,05,30,09,18,18.30
2009,05,30,09,19,18.40
2009,05,30,09,20,18.50
2009,05,30,09,21,18.60
2009,05,30,09,22,18.60
2009,05,30,09,23,18.70
2009,05,30,09,24,18.70
2009,05,30,09,25,18.70
2009,05,30,09,26,18.70
2009,05,30,09,27,18.70
2009,05,30,09,28,18.60
2009,05,30,09,29,18.50
2009,05,30,09,30,18.40
2009,05,30,09,31,18.40
2009,05,30,09,32,18.30
2009,05,30,09,33,18.20
2009,05,30,09,34,18.00
2009,05,30,09,35,17.90
2009,05,30,09,36,17.80
2009,05,30,09,37,17.70
2009,05,30,09,38,17.70
2009,05,30,09,39,17.60
2009,05,30,09,40,17.60
2009,05,30,09,41,17.50
2009,05,30,09,42,17.40
2009,05,30,09,43,17.40
2009,05,30,09,44,17.40
2009,05,30,09,45,17.50
2009,05,30,09,46,17.50
2009,05,30,09,47,17.50
2009,05,30,09,48,17.40
2009,05,30,09,49,17.40
2009,05,30,09,50,17.40
2009,05,30,09,51,17.30
2009,05,30,09,52,17.30
2009,05,30,09,53,17.40
2009,05,30,09,54,17.40
2009,05,30,09,55,17.30
2009,05,30,09,56,17.30
2009,05,30,09,57,17.20
2009,05,30,09,58,17.20
2009,05,30,09,59,17.20
2009,05,30,10,00,17.10
2009,05,30,10,01,17.10
2009,05,30,10,02,17.10
2009,05,30,10,03,17.10
2009,05,30,10,04,17.00
2009,05,30,10,05,16.90
2009,05,30,10,06,16.90
2009,05,30,10,07,16.90
2009,05,30,10,08,16.80
2009,05,30,10,09,16.80
2009,05,30,10,10,16.80
2009,05,30,10,11,16.70
2009,05,30,10,12,16.70
2009,05,30,10,13,16.70
2009,05,30,10,14,16.70
2009,05,30,10,15,16.70
2009,05,30,10,16,16.70
2009,05,30,10,17,16.80
2009,05,30,10,18,16.90
2009,05,30,10,19,17.00
2009,05,30,10,20,17.00
2009,05,30,10,21,17.10
2009,05,30,10,22,17.10
2009,05,30,10,23,17.10
2009,05,30,10,24,17.20
2009,05,30,10,25,17.20
2009,05,30,10,26,17.30
2009,05,30,10,27,17.30
2009,05,30,10,28,17.30
2009,05,30,10,29,17.30
2009,05,30,10,30,17.30
2009,05,30,10,31,17.30
2009,05,30,10,32,17.30
2009,05,30,10,33,17.30
2009,05,30,10,34,17.30
2009,05,30,10,35,17.30
2009,05,30,10,36,17.30
2009,05,30,10,37,17.30
2009,05,30,10,38,17.20
2009,05,30,10,39,17.20
2009,05,30,10,40,17.30
2009,05,30,10,41,17.30
2009,05,30,10,42,17.30
2009,05,30,10,43,17.30
2009,05,30,10,44,17.30
2009,05,30,10,45,17.30
2009,05,30,10,46,17.30
2009,05,30,10,47,17.40
2009,05,30,10,48,17.40
2009,05,30,10,49,17.40
2009,05,30,10,50,17.40
2009,05,30,10,51,17.50
2009,05,30,10,52,17.50
2009,05,30,10,53,17.60
2009,05,30,10,54,17.60
2009,05,30,10,55,17.70
2009,05,30,10,56,17.70
2009,05,30,10,57,17.70
2009,05,30,10,58,17.70
2009,05,30,10,59,17.80
2009,05,30,11,00,17.80
2009,05,30,11,01,17.90
2009,05,30,11,02,18.10
2009,05,30,11,03,18.10
2009,05,30,11,04,18.20
2009,05,30,11,05,18.20
2009,05,30,11,06,18.30
2009,05,30,11,07,18.30
2009,05,30,11,08,18.30
2009,05,30,11,09,18.30
2009,05,30,11,10,18.30
2009,05,30,11,11,18.30
2009,05,30,11,12,18.30
2009,05,30,11,13,18.20
2009,05,30,11,14,18.20
2009,05,30,11,15,18.10
2009,05,30,11,16,18.20
2009,05,30,11,17,18.30
2009,05,30,11,18,18.40
2009,05,30,11,19,18.50
2009,05,30,11,20,18.60
2009,05,30,11,21,18.70
2009,05,30,11,22,18.70
2009,05,30,11,23,18.80
2009,05,30,11,24,18.80
2009,05,30,11,25,18.80
2009,05,30,11,26,18.80
2009,05,30,11,27,18.70
2009,05,30,11,28,18.70
2009,05,30,11,29,18.70
2009,05,30,11,30,18.60
2009,05,30,11,31,18.50
2009,05,30,11,32,18.40
2009,05,30,11,33,18.40
2009,05,30,11,34,18.30
2009,05,30,11,35,18.20
2009,05,30,11,36,18.20
2009,05,30,11,37,18.20
2009,05,30,11,38,18.20
2009,05,30,11,39,18.30
2009,05,30,11,40,18.30
2009,05,30,11,41,18.30
2009,05,30,11,42,18.30
2009,05,30,11,43,18.30
2009,05,30,11,44,18.30
2009,05,30,11,45,18.30
2009,05,30,11,46,18.40
2009,05,30,11,47,18.40
2009,05,30,11,48,18.50
2009,05,30,11,49,18.50
2009,05,30,11,50,18.60
2009,05,30,11,51,18.70
2009,05,30,11,52,18.80
2009,05,30,11,53,18.90
2009,05,30,11,54,18.90
2009,05,30,11,55,19.00
2009,05,30,11,56,19.00
2009,05,30,11,57,19.10
2009,05,30,11,58,19.10
2009,05,30,11,59,19.00
2009,05,30,12,00,19.00
2009,05,30,12,01,18.90
2009,05,30,12,02,18.90
2009,05,30,12,03,18.90
2009,05,30,12,04,18.90
2009,05,30,12,05,18.90
2009,05,30,12,06,19.00
2009,05,30,12,07,19.10
2009,05,30,12,08,19.10
2009,05,30,12,09,19.00
2009,05,30,12,10,18.90
2009,05,30,12,11,18.90
2009,05,30,12,12,18.90
2009,05,30,12,13,19.00
2009,05,30,12,14,18.90
2009,05,30,12,15,18.90
2009,05,30,12,16,19.00
2009,05,30,12,17,19.00
2009,05,30,12,18,19.00
2009,05,30,12,19,18.90
2009,05,30,12,20,18.90
2009,05,30,12,21,18.90
2009,05,30,12,22,18.90
2009,05,30,12,23,18.90
2009,05,30,12,24,18.90
2009,05,30,12,25,18.90
2009,05,30,12,26,18.90
2009,05,30,12,27,19.00
2009,05,30,12,28,19.00
2009,05,30,12,29,19.00
2009,05,30,12,30,19.00
2009,05,30,12,31,19.10
2009,05,30,12,32,19.20
2009,05,30,12,33,19.20
2009,05,30,12,34,19.30
2009,05,30,12,35,19.40
2009,05,30,12,36,19.50
2009,05,30,12,37,19.50
2009,05,30,12,38,19.50
2009,05,30,12,39,19.40
2009,05,30,12,40,19.40
2009,05,30,12,41,19.40
2009,05,30,12,42,19.40
2009,05,30,12,43,19.40
2009,05,30,12,44,19.30
2009,05,30,12,45,19.20
2009,05,30,12,46,19.20
2009,05,30,12,47,19.30
2009,05,30,12,48,19.30
2009,05,30,12,49,19.30
2009,05,30,12,50,19.30
2009,05,30,12,51,19.40
2009,05,30,12,52,19.40
2009,05,30,12,53,19.50
2009,05,30,12,54,19.40
2009,05,30,12,55,19.40
2009,05,30,12,56,19.40
2009,05,30,12,57,19.30
2009,05,30,12,58,19.30
2009,05,30,12,59,19.30
2009,05,30,13,00,19.30
2009,05,30,13,01,19.30
2009,05,30,13,02,19.30
2009,05,30,13,03,19.40
2009,05,30,13,04,19.40
2009,05,30,13,05,19.50
2009,05,30,13,06,19.40
2009,05,30,13,07,19.40
2009,05,30,13,08,19.30
2009,05,30,13,09,19.30
2009,05,30,13,10,19.30
2009,05,30,13,11,19.20
2009,05,30,13,12,19.30
2009,05,30,13,13,19.30
2009,05,30,13,14,19.40
2009,05,30,13,15,19.40
2009,05,30,13,16,19.50
2009,05,30,13,17,19.60
2009,05,30,13,18,19.70
2009,05,30,13,19,19.80
2009,05,30,13,20,19.80
2009,05,30,13,21,19.90
2009,05,30,13,22,19.80
2009,05,30,13,23,19.80
2009,05,30,13,24,19.80
2009,05,30,13,25,19.70
2009,05,30,13,26,19.60
2009,05,30,13,27,19.50
2009,05,30,13,28,19.40
2009,05,30,13,29,19.30
2009,05,30,13,30,19.30
2009,05,30,13,31,19.30
2009,05,30,13,32,19.40
2009,05,30,13,33,19.40
2009,05,30,13,34,19.40
2009,05,30,13,35,19.40
2009,05,30,13,36,19.50
2009,05,30,13,37,19.50
2009,05,30,13,38,19.50
2009,05,30,13,39,19.60
2009,05,30,13,40,19.60
2009,05,30,13,41,19.70
2009,05,30,13,42,19.70
2009,05,30,13,43,19.70
2009,05,30,13,44,19.70
2009,05,30,13,45,19.70
2009,05,30,13,46,19.80
2009,05,30,13,47,19.90
2009,05,30,13,48,19.90
2009,05,30,13,49,19.90
2009,05,30,13,50,20.00
2009,05,30,13,51,20.10
2009,05,30,13,52,20.00
2009,05,30,13,53,20.00
2009,05,30,13,54,20.10
2009,05,30,13,55,20.20
2009,05,30,13,56,20.30
2009,05,30,13,57,20.40
2009,05,30,13,58,20.40
2009,05,30,13,59,20.60
2009,05,30,14,00,20.70
2009,05,30,14,01,20.80
2009,05,30,14,02,20.80
2009,05,30,14,03,20.70
2009,05,30,14,04,20.70
2009,05,30,14,05,20.70
2009,05,30,14,06,20.70
2009,05,30,14,07,20.70
2009,05,30,14,08,20.70
2009,05,30,14,09,20.70
2009,05,30,14,10,20.70
2009,05,30,14,11,20.80
2009,05,30,14,12,20.80
2009,05,30,14,13,20.80
2009,05,30,14,14,20.80
2009,05,30,14,15,20.80
2009,05,30,14,16,20.80
2009,05,30,14,17,20.70
2009,05,30,14,18,20.70
2009,05,30,14,19,20.60
2009,05,30,14,20,20.60
2009,05,30,14,21,20.50
2009,05,30,14,22,20.50
2009,05,30,14,23,20.50
2009,05,30,14,24,20.40
2009,05,30,14,25,20.40
2009,05,30,14,26,20.30
2009,05,30,14,27,20.40
2009,05,30,14,28,20.40
2009,05,30,14,29,20.40
2009,05,30,14,30,20.50
2009,05,30,14,31,20.50
2009,05,30,14,32,20.50
2009,05,30,14,33,20.50
2009,05,30,14,34,20.50
2009,05,30,14,35,20.50
2009,05,30,14,36,20.60
2009,05,30,14,37,20.60
2009,05,30,14,38,20.60
2009,05,30,14,39,20.70
2009,05,30,14,40,20.70
2009,05,30,14,41,20.80
2009,05,30,14,42,20.80
2009,05,30,14,43,20.70
2009,05,30,14,44,20.70
2009,05,30,14,45,20.70
2009,05,30,14,46,20.70
2009,05,30,14,47,20.70
2009,05,30,14,48,20.80
2009,05,30,14,49,20.80
2009,05,30,14,50,20.90
2009,05,30,14,51,20.80
2009,05,30,14,52,20.80
2009,05,30,14,53,20.80
2009,05,30,14,54,20.80
2009,05,30,14,55,20.80
2009,05,30,14,56,20.80
2009,05,30,14,57,20.90
2009,05,30,14,58,20.90
2009,05,30,14,59,20.90
2009,05,30,15,00,20.90
2009,05,30,15,01,20.90
2009,05,30,15,02,20.80
2009,05,30,15,03,20.80
2009,05,30,15,04,20.80
2009,05,30,15,05,20.80
2009,05,30,15,06,20.80
2009,05,30,15,07,20.90
2009,05,30,15,08,21.00
2009,05,30,15,09,21.00
2009,05,30,15,10,21.10
2009,05,30,15,11,21.10
2009,05,30,15,12,21.10
2009,05,30,15,13,21.10
2009,05,30,15,14,21.10
2009,05,30,15,15,21.10
2009,05,30,15,16,21.00
2009,05,30,15,17,21.00
2009,05,30,15,18,21.00
2009,05,30,15,19,21.10
2009,05,30,15,20,21.10
2009,05,30,15,21,21.00
2009,05,30,15,22,21.00
2009,05,30,15,23,20.90
2009,05,30,15,24,20.90
2009,05,30,15,25,20.80
2009,05,30,15,26,20.90
2009,05,30,15,27,20.90
2009,05,30,15,28,21.00
2009,05,30,15,29,21.10
2009,05,30,15,30,21.20
2009,05,30,15,31,21.40
2009,05,30,15,32,21.40
2009,05,30,15,33,21.40
2009,05,30,15,34,21.50
2009,05,30,15,35,21.40
2009,05,30,15,36,21.40
2009,05,30,15,37,21.40
2009,05,30,15,38,21.40
2009,05,30,15,39,21.40
2009,05,30,15,40,21.40
2009,05,30,15,41,21.50
2009,05,30,15,42,21.50
2009,05,30,15,43,21.50
2009,05,30,15,44,21.60
2009,05,30,15,45,21.60
2009,05,30,15,46,21.60
2009,05,30,15,47,21.70
2009,05,30,15,48,21.70
2009,05,30,15,49,21.70
2009,05,30,15,50,21.60
2009,05,30,15,51,21.60
2009,05,30,15,52,21.60
2009,05,30,15,53,21.60
2009,05,30,15,54,21.60
2009,05,30,15,55,21.60
2009,05,30,15,56,21.60
2009,05,30,15,57,21.60
2009,05,30,15,58,21.60
2009,05,30,15,59,21.60
2009,05,30,16,00,21.50
2009,05,30,16,01,21.60
2009,05,30,16,02,21.60
2009,05,30,16,03,21.60
2009,05,30,16,04,21.60
2009,05,30,16,05,21.60
2009,05,30,16,06,21.60
2009,05,30,16,07,21.60
2009,05,30,16,08,21.70
2009,05,30,16,09,21.70
2009,05,30,16,10,21.70
2009,05,30,16,11,21.70
2009,05,30,16,12,21.60
2009,05,30,16,13,21.70
2009,05,30,16,14,21.70
2009,05,30,16,15,21.70
2009,05,30,16,16,21.80
2009,05,30,16,17,21.80
2009,05,30,16,18,21.80
2009,05,30,16,19,21.80
2009,05,30,16,20,21.90
2009,05,30,16,21,21.90
2009,05,30,16,22,21.80
2009,05,30,16,23,21.80
2009,05,30,16,24,21.80
2009,05,30,16,25,21.80
2009,05,30,16,26,21.80
2009,05,30,16,27,21.80
2009,05,30,16,28,21.90
2009,05,30,16,29,21.90
2009,05,30,16,30,21.90
2009,05,30,16,31,21.90
2009,05,30,16,32,21.90
2009,05,30,16,33,21.90
2009,05,30,16,34,21.90
2009,05,30,16,35,21.90
2009,05,30,16,36,21.90
2009,05,30,16,37,21.90
2009,05,30,16,38,21.80
2009,05,30,16,39,21.80
2009,05,30,16,40,21.80
2009,05,30,16,41,21.80
2009,05,30,16,42,21.80
2009,05,30,16,43,21.90
2009,05,30,16,44,21.90
2009,05,30,16,45,22.00
2009,05,30,16,46,22.00
2009,05,30,16,47,22.00
2009,05,30,16,48,22.10
2009,05,30,16,49,22.10
2009,05,30,16,50,22.00
2009,05,30,16,51,22.10
2009,05,30,16,52,22.10
2009,05,30,16,53,22.10
2009,05,30,16,54,22.20
2009,05,30,16,55,22.20
2009,05,30,16,56,22.30
2009,05,30,16,57,22.30
2009,05,30,16,58,22.30
2009,05,30,16,59,22.30
2009,05,30,17,00,22.30
2009,05,30,17,01,22.30
2009,05,30,17,02,22.30
2009,05,30,17,03,22.30
2009,05,30,17,04,22.30
2009,05,30,17,05,22.30
2009,05,30,17,06,22.20
2009,05,30,17,07,22.30
2009,05,30,17,08,22.30
2009,05,30,17,09,22.40
2009,05,30,17,10,22.40
2009,05,30,17,11,22.40
2009,05,30,17,12,22.40
2009,05,30,17,13,22.50
2009,05,30,17,14,22.50
2009,05,30,17,15,22.40
2009,05,30,17,16,22.40
2009,05,30,17,17,22.40
2009,05,30,17,18,22.40
2009,05,30,17,19,22.50
2009,05,30,17,20,22.50
2009,05,30,17,21,22.40
2009,05,30,17,22,22.30
2009,05,30,17,23,22.20
2009,05,30,17,24,22.20
2009,05,30,17,25,22.20
2009,05,30,17,26,22.20
2009,05,30,17,27,22.20
2009,05,30,17,28,22.20